星链-36416(STARLINK-36416)

导读

STARLINK-36416是美国于2026年1月30日发射的星链系列卫星,星链是美国太空探索技术公司打造的低轨卫星互联网星座项目,旨在为全球提供高速低延迟宽带网络服务。该卫星将完成部署入轨流程,补全星链星座网络,进一步拓展星链在全球通信、远程互联等领域的覆盖能力与服务稳定性。

基本信息
目录编号:
67630
目录名称:
STARLINK-36416
国际标识:
2026-020P
轨道中心:
EARTH
卫星名称:
星链-36416
卫星全名:
星链-36416(STARLINK-36416)
卫星状态:
在轨 (已飞行134 天)
发射日期:
2026-01-30 UTC
国别 :
美国 (US)
星等 :
--
轨道信息
数据来源 国际轨道数据
星历时间: 2026-06-12T12:09:08+0800
1天前
查看轨道信息
半长轴: 6861.129km
偏心率: 0.0001779
轨道倾角: 43.004°
近地点辐角 270.306°
升交点赤经 326.188°
平近点角 89.759°
近地点: 481.771km
远地点: 484.213km
周期: 94.266分钟
每日圈数: 15.275992
详细信息
固有亮度:
5
最大亮度:
2.5
卫星平台:
Starlink V1.0
覆盖范围:
全球
运营商:
太空探索技术公司
运营商所在国:
美国
制造商(研发单位):
太空探索技术公司
制造商所在国:
美国
使用方式:
暂无
卫星简介
Starlink 计划是 SpaceX 推出的全球卫星互联网项目,通过发射低轨道卫星,为全球尤其是偏远地区提供高速、低延迟的互联网服务。自 2019 年起,Starlink 已部署数千颗卫星,旨在缩小全球数字鸿沟,推动互联网普及。该项目还为军事、航空等行业提供通信支持,带来广泛经济效益。
2D轨道图
3D轨道图
轨道高度分析图
轨道倾角分析图
轨道综合分析图
查看轨道综合分析图